TimeCDT,TemperatureF,Dew PointF,Humidity,Sea Level PressureIn,VisibilityMPH,Wind Direction,Wind SpeedMPH,Gust SpeedMPH,PrecipitationIn,Events,Conditions,WindDirDegrees,DateUTC
12:52 AM,35.1,24.1,64,30.26,10.0,Calm,Calm,-,N/A,,Clear,0,2013-03-14 05:52:00
1:52 AM,35.1,25.0,67,30.23,10.0,Calm,Calm,-,N/A,,Clear,0,2013-03-14 06:52:00
2:52 AM,34.0,25.0,70,30.22,10.0,Calm,Calm,-,N/A,,Clear,0,2013-03-14 07:52:00
3:52 AM,34.0,25.0,70,30.20,10.0,Calm,Calm,-,N/A,,Clear,0,2013-03-14 08:52:00
4:52 AM,37.0,27.0,67,30.17,10.0,SSW,4.6,-,N/A,,Scattered Clouds,210,2013-03-14 09:52:00
5:52 AM,41.0,28.9,62,30.15,10.0,SSW,5.8,-,N/A,,Partly Cloudy,210,2013-03-14 10:52:00
6:52 AM,43.0,30.9,62,30.13,10.0,SW,5.8,-,N/A,,Clear,220,2013-03-14 11:52:00
7:52 AM,37.9,30.9,76,30.13,10.0,SSW,8.1,-,N/A,,Clear,200,2013-03-14 12:52:00
8:52 AM,44.1,34.0,68,30.13,10.0,SSW,8.1,-,N/A,,Clear,210,2013-03-14 13:52:00
9:52 AM,48.9,36.0,61,30.14,10.0,SW,17.3,-,N/A,,Clear,230,2013-03-14 14:52:00
10:52 AM,55.4,37.4,51,30.12,10.0,West,10.4,-,N/A,,Clear,260,2013-03-14 15:52:00
11:52 AM,60.1,37.0,42,30.12,10.0,WSW,9.2,17.3,N/A,,Clear,250,2013-03-14 16:52:00
12:52 PM,64.0,37.9,38,30.12,10.0,WNW,6.9,-,N/A,,Clear,290,2013-03-14 17:52:00
1:52 PM,66.9,36.0,32,30.12,10.0,Variable,5.8,-,N/A,,Clear,0,2013-03-14 18:52:00
2:52 PM,71.1,36.0,28,30.11,10.0,NNW,8.1,-,N/A,,Clear,330,2013-03-14 19:52:00
3:52 PM,73.9,36.0,25,30.09,10.0,Variable,4.6,-,N/A,,Clear,0,2013-03-14 20:52:00
4:52 PM,75.0,34.0,22,30.07,10.0,NE,4.6,-,N/A,,Clear,50,2013-03-14 21:52:00
5:52 PM,75.0,34.0,22,30.06,10.0,Variable,4.6,-,N/A,,Clear,0,2013-03-14 22:52:00
6:52 PM,72.0,34.0,25,30.08,10.0,Calm,Calm,-,N/A,,Clear,0,2013-03-14 23:52:00
7:52 PM,64.0,34.0,33,30.10,10.0,North,3.5,-,N/A,,Clear,360,2013-03-15 00:52:00
8:52 PM,55.0,34.0,45,30.10,10.0,North,3.5,-,N/A,,Clear,360,2013-03-15 01:52:00
9:52 PM,50.0,34.0,54,30.11,10.0,Calm,Calm,-,N/A,,Clear,0,2013-03-15 02:52:00
10:52 PM,48.0,34.0,58,30.10,10.0,Calm,Calm,-,N/A,,Clear,0,2013-03-15 03:52:00
11:52 PM,45.0,34.0,65,30.09,10.0,Calm,Calm,-,N/A,,Clear,0,2013-03-15 04:52:00